Showing default

SYRACUSE 4A, 49333

Orbit data source: Space-Track

SYRACUSE 4A, 49333 is a payload satellite owned by DGA (FR) in GEO that was launched on Sun, 24 Oct 2021 UTC via an ARIANE 5ECA+ launch vehicle from the French Guiana (FRGUI). Payload-class satellites include a variety of spacecraft equipped with specific instruments for various scientific and technological missions. These include communications satellites like Starlink; space stations such as the ISS; scientific satellites like the Hubble; Earth observation satellites from companies like Planet Labs, Umbra, and HawkEye 360; GPS; miniature CubeSats for education and research; and military/defense satellites.

Not visible in the next 10 days
Identifier
49333, 2021-095B
Orbit
GEO
Last TLE update
13 hours ago
Origin
Manufacturer
Thales Alenia
Mission
Operational Defense Communications
Bus & Motor
SPACEBUS NEO100, XPS/PPS-5000
Mass
3,852 kg wet, ~3,200 kg dry
Launch date (UTC)
2021-10-24 (4 years ago)
Launch vehicle
ARIANE 5ECA+
Launch site
French Guiana (FRGUI)
Object type
Payload
Rocket body
Debris
Shape & HBR
Box + 2 Pan, 30 m
Radar Cross Section
34.063 m², Medium (>0.1 m² and < 1m²)

Expand to show TLE details & history

TLE from 13 hours ago
0 SYRACUSE 4A
1 49333U 21095B   25187.43045437  .00000152  00000-0  00000-0 0  9990
2 49333   0.0183  13.3009 0001499  86.9211  24.8988  1.00273080 14490
Epoch: 2025-07-06T10:19Z
TLE epoch observation values (Epoch: 2025-07-06T10:19:51.257Z)
Latitude
0.03854°
Longitude
45.51196°
Altitude
35,779.959 km
Speed
3.075 km/s
True Right ascension
08h 20m 31s
True Declination
0° 02' 19"
Sunlit
Object was in daylight at epoch
Visualization orbit readout
Latitude
-0.03651°
Longitude
-124.69338°
Altitude
35,790.881 km
Speed
3.074 km/s
Apparent Right ascension
21h 11m 32s
Apparent Declination
-5° 02' 10"
Sunlit
Object is in daylight
Visualization observer readout
Local Sidereal Time
10:57:14
Azimuth
41.269° NE
Elevation
-47.778°
Doppler factor
1
Orbital elements
Apogee altitude
35,793.623 km
Perigee altitude
35,780.982 km
Semi-major axis
42,165.439 km
Eccentricity
0.00015
Inclination
0.0183°
RAAN
13.3009°
Arg. of periapsis
86.9211°
True anomaly
Unknown
Mean anomaly
24.8988°
Eccentric anomaly
Unknown
Mean motion
0.25067 °/min
Orbital period
1,436.13 mins
BSTAR
0
Loading historical data...
49333 neighbors
Loading maneuver chart data...
Loading SW <> Apogee altitude chart data...
Loading historical data...
Loading historical data...
Loading historical data...
Loading historical data...
Loading historical data...
Loading historical data...
Loading historical data...
Other satellites on launch #95 in the year 2021 (2021-10-24 UTC)

SYRACUSE 4A Visibility

Observer location: undefined°, undefined°

SYRACUSE 4A is likely not visible in the next few days
Span
Click to sort rows by Start time (UTC) header in descending order
Start Az.
Max El. time (UTC)
Max El. Az.
Max El.
End time (UTC)
End Az.
|